Tracking 28790 objects as of 18-Apr-2024
HD Live streaming from Space Station
objects crossing your sky now

AEROCUBE 4.5B

Track AEROCUBE 4.5B now!
10-day predictions
AEROCUBE 4.5B is classified as:


NORAD ID: 38768
Int'l Code: 2012-048L
Perigee: 450.4 km
Apogee: 572.4 km
Inclination: 64.7 °
Period: 94.7 minutes
Semi major axis: 6882 km
RCS: Unknown
Launch date: September 13, 2012
Source: United States (US)
Launch site: AIR FORCE WESTERN TEST RANGE (AFWTR)
Your satellite tracking list
Your tracking list is empty




NASA's NSSDC Master Catalog

Two Line Element Set (TLE):
1 38768U 12048L   24109.16289035  .00052617  00000-0  21463-2 0  9996
2 38768  64.6564  76.4461 0088686  28.3157 332.2747 15.20522687252280
Source of the keplerian elements: AFSPC